TimeCDT,TemperatureF,Dew PointF,Humidity,Sea Level PressureIn,VisibilityMPH,Wind Direction,Wind SpeedMPH,Gust SpeedMPH,PrecipitationIn,Events,Conditions,WindDirDegrees,DateUTC
12:52 AM,60.1,55.9,86,29.77,10.0,WSW,6.9,-,N/A,,Mostly Cloudy,250,2013-05-22 05:52:00
1:52 AM,59.0,55.0,87,29.76,10.0,SW,6.9,-,N/A,,Overcast,230,2013-05-22 06:52:00
2:52 AM,57.0,55.0,93,29.76,10.0,WSW,6.9,-,0.00,,Clear,240,2013-05-22 07:52:00
3:52 AM,55.0,53.1,93,29.76,10.0,SW,6.9,-,N/A,,Clear,230,2013-05-22 08:52:00
4:52 AM,55.0,54.0,96,29.77,10.0,SW,8.1,-,N/A,,Clear,230,2013-05-22 09:52:00
5:52 AM,55.0,54.0,96,29.79,10.0,SSW,6.9,-,N/A,,Mostly Cloudy,200,2013-05-22 10:52:00
6:52 AM,57.0,55.0,93,29.79,10.0,SW,9.2,-,N/A,,Overcast,220,2013-05-22 11:52:00
7:52 AM,59.0,55.0,87,29.79,10.0,WSW,11.5,-,N/A,,Scattered Clouds,240,2013-05-22 12:52:00
8:52 AM,63.0,55.9,78,29.81,10.0,West,13.8,-,N/A,,Clear,260,2013-05-22 13:52:00
9:52 AM,64.9,57.0,75,29.82,10.0,WSW,13.8,-,N/A,,Partly Cloudy,240,2013-05-22 14:52:00
10:52 AM,68.0,55.9,65,29.83,10.0,WSW,13.8,-,N/A,,Partly Cloudy,240,2013-05-22 15:52:00
11:52 AM,69.1,54.0,58,29.83,10.0,West,12.7,-,N/A,,Scattered Clouds,260,2013-05-22 16:52:00
12:52 PM,70.0,55.0,59,29.84,10.0,West,13.8,-,N/A,,Mostly Cloudy,270,2013-05-22 17:52:00
1:52 PM,70.0,55.0,59,29.85,10.0,West,12.7,20.7,N/A,,Mostly Cloudy,280,2013-05-22 18:52:00
2:52 PM,70.0,54.0,57,29.85,10.0,West,15.0,24.2,N/A,,Mostly Cloudy,270,2013-05-22 19:52:00
3:52 PM,70.0,54.0,57,29.85,10.0,WNW,13.8,21.9,N/A,,Mostly Cloudy,300,2013-05-22 20:52:00
4:52 PM,70.0,54.0,57,29.85,10.0,WNW,11.5,-,N/A,,Partly Cloudy,300,2013-05-22 21:52:00
5:52 PM,70.0,54.0,57,29.85,10.0,WNW,8.1,-,N/A,,Partly Cloudy,300,2013-05-22 22:52:00
6:52 PM,66.9,54.0,63,29.86,10.0,West,8.1,-,N/A,,Scattered Clouds,280,2013-05-22 23:52:00
7:52 PM,66.9,54.0,63,29.87,10.0,West,3.5,-,N/A,,Clear,280,2013-05-23 00:52:00
8:52 PM,63.0,54.0,72,29.89,10.0,West,5.8,-,N/A,,Clear,260,2013-05-23 01:52:00
9:52 PM,60.1,54.0,80,29.91,10.0,Calm,Calm,-,N/A,,Partly Cloudy,0,2013-05-23 02:52:00
10:52 PM,59.0,53.1,81,29.94,10.0,Calm,Calm,-,N/A,,Partly Cloudy,0,2013-05-23 03:52:00
11:52 PM,57.9,54.0,87,29.94,10.0,Calm,Calm,-,N/A,,Clear,0,2013-05-23 04:52:00